GEFSSGP_con_prob3kmehi_102.txt.gz
EHI
15 7 1 0 1 3 5 2 0 0 1 3 7 13 20 18 10 5 10 34 70 78 59 52 61 64 52 35 22 15 9 5 3 2 2 1 0 0 0 0 0 0 0 0 0 0 0 0 0
7 4 0 0 1 3 4 2 1 1 3 5 9 14 18 18 13 9 17 45 75 81 65 57 64 66 52 35 22 14 8 4 2 1 1 0 0 0 0 0 0 0 0 0 0 0 0 0 0
1 0 0 0 2 4 5 2 1 2 4 9 15 19 18 16 16 17 29 58 80 81 71 67 72 70 54 37 23 13 6 2 1 0 0 0 0 0 0 0 0 0 0 0 0 0 0 0 0
0 0 0 1 4 7 7 5 3 3 7 15 24 28 23 21 24 31 43 63 79 79 73 73 77 73 59 42 27 15 7 2 1 0 0 0 0 0 0 0 0 0 0 0 0 0 0 0 0
0 0 0 0 2 5 7 7 7 9 13 20 28 32 30 32 40 44 49 64 78 80 72 72 76 72 61 48 32 19 11 4 1 0 0 0 0 0 0 0 0 0 0 0 0 0 0 0 0
0 0 0 0 0 2 4 7 12 16 18 21 26 28 27 36 45 44 44 54 68 74 68 64 65 63 56 46 33 23 15 7 3 1 1 1 0 0 0 0 0 0 0 0 0 0 0 0 0
0 0 0 0 0 1 2 7 13 17 17 20 24 24 23 31 40 41 39 42 50 59 57 51 48 47 43 37 30 24 17 10 4 3 2 1 0 0 0 0 0 0 0 0 0 0 0 0 0
0 0 0 0 0 0 2 6 11 15 15 17 21 23 23 29 40 46 43 38 36 40 39 35 32 30 29 27 25 22 16 10 5 4 4 3 1 0 0 0 0 0 0 0 1 1 0 0 0
0 0 0 0 0 1 2 5 9 12 15 16 20 26 31 38 48 54 49 36 26 23 21 20 20 20 19 19 18 16 13 8 4 4 5 4 2 0 0 0 0 0 0 0 2 2 1 0 0
0 0 0 0 1 2 4 6 8 11 16 19 25 34 41 47 55 58 48 31 18 12 9 9 10 11 12 13 12 11 9 6 3 2 3 3 1 0 0 1 1 0 0 1 2 4 2 0 0
0 0 0 0 1 3 4 7 10 14 19 23 30 39 46 50 54 53 44 30 19 13 9 7 7 8 10 11 10 8 6 4 2 2 3 2 0 0 0 1 2 1 1 2 3 4 2 0 0
0 0 1 1 2 3 4 8 15 20 23 28 34 39 43 46 48 48 43 35 27 22 18 15 13 13 14 12 9 7 5 4 2 2 2 1 0 0 1 2 3 3 2 2 3 3 1 0 0
0 1 2 3 5 6 7 10 16 23 29 33 36 38 37 39 42 43 42 38 33 30 27 23 22 22 20 14 9 7 5 3 2 1 1 1 0 0 2 3 3 3 2 1 1 1 1 1 0
0 1 2 4 5 6 8 12 16 22 31 36 37 37 35 34 36 37 38 36 34 33 31 28 27 28 24 16 10 7 5 3 2 1 1 1 1 1 1 2 2 1 1 0 0 0 1 1 1
0 0 1 2 3 3 5 10 13 19 28 34 36 35 34 32 30 32 35 35 34 35 33 30 28 28 23 16 11 8 5 4 2 2 2 2 2 1 1 1 1 0 0 0 0 0 0 0 0
0 0 0 0 0 1 3 7 10 15 21 26 29 30 30 29 28 29 33 33 33 34 32 27 23 21 17 13 10 7 5 4 2 2 2 2 1 1 2 2 1 0 0 0 0 0 0 0 0
0 0 0 0 0 1 2 5 8 10 14 18 20 21 22 23 24 26 27 28 27 26 23 19 15 13 12 11 8 4 2 2 1 0 1 1 0 0 1 1 1 0 0 0 0 0 0 0 0
0 0 0 0 1 2 3 4 7 7 9 13 15 16 16 17 19 21 20 19 17 15 13 12 11 9 9 9 6 2 0 0 0 0 0 0 0 0 0 0 0 0 0 0 0 0 0 0 0
0 0 0 0 1 1 2 3 4 5 7 10 12 12 12 13 14 15 15 13 11 10 10 11 10 8 5 5 4 1 0 0 0 0 0 0 0 0 0 0 0 0 0 0 0 0 0 0 0
0 0 0 0 0 1 1 2 3 4 6 9 10 10 10 10 11 11 11 11 10 10 10 11 9 5 2 1 1 0 0 0 0 0 0 0 0 0 0 0 0 0 0 0 0 0 0 0 0
0 0 0 0 0 1 1 2 3 4 6 8 8 7 8 10 9 7 8 9 10 10 10 9 6 3 0 0 0 0 0 0 0 0 0 0 0 0 0 0 0 0 0 0 0 0 0 0 0
0 0 0 0 0 0 0 1 1 2 5 6 5 6 7 8 6 5 5 7 8 8 6 5 3 1 0 0 0 0 0 0 0 0 0 0 0 0 0 0 0 0 0 0 0 0 0 0 0
0 0 0 0 0 0 0 0 0 1 3 3 3 5 7 6 5 4 4 4 5 4 3 3 1 0 0 0 0 0 0 0 0 0 0 0 0 0 0 0 0 0 0 0 0 0 0 0 0
0 0 0 0 0 0 0 0 0 0 1 2 3 5 6 5 4 5 4 3 3 2 3 2 1 0 0 0 0 0 0 0 0 0 0 0 0 0 0 0 0 0 0 0 0 0 0 0 0
0 0 0 0 0 0 0 0 0 0 1 2 4 5 6 6 6 6 4 4 4 4 4 3 1 0 0 0 0 0 0 0 0 0 0 0 0 0 0 0 0 0 0 0 0 0 0 0 0
0 0 0 0 0 0 0 0 0 0 1 4 6 7 7 7 8 7 5 5 6 7 6 5 2 0 0 0 0 0 0 0 0 0 0 0 0 0 0 0 0 0 0 0 0 0 0 0 0
0 0 0 0 0 0 0 0 0 1 3 6 8 8 8 8 7 6 4 5 7 8 7 6 3 0 0 0 0 0 0 0 0 0 0 0 0 0 0 0 0 0 0 0 0 0 0 0 0
0 0 0 0 0 0 0 0 0 1 3 6 8 8 8 7 5 3 3 4 6 7 6 5 2 0 0 0 0 0 0 0 0 0 0 0 0 0 0 0 0 0 0 0 0 0 0 0 0
0 0 0 0 0 0 0 0 0 0 2 5 6 7 8 7 4 3 4 4 4 5 6 4 1 0 0 0 1 1 1 1 1 0 0 0 0 0 0 0 0 0 0 0 0 0 0 0 0
0 0 0 0 0 0 0 0 0 0 1 3 5 6 7 6 5 5 4 3 3 5 6 4 1 0 0 1 2 2 2 2 2 1 0 0 0 0 0 0 0 0 0 0 0 0 0 0 0

GEFSSGP_con_prob3kmehi_108.txt.gz
EHI
0 0 0 0 0 0 0 0 0 0 1 1 2 2 2 3 3 2 4 16 38 49 40 36 49 61 58 50 47 43 38 30 21 15 11 6 3 1 0 0 0 0 0 0 0 0 0 0 0
0 0 0 0 0 0 0 0 1 1 2 3 3 5 5 4 3 4 6 18 40 50 41 38 51 60 55 48 44 41 34 25 16 12 9 5 2 1 0 0 0 0 0 0 0 0 0 0 0
0 0 0 0 0 0 0 1 2 4 4 4 5 7 6 4 3 5 11 26 45 50 43 43 54 57 51 45 41 37 30 20 12 9 7 3 1 0 0 0 0 0 0 0 0 0 0 0 0
0 0 0 0 0 0 1 1 4 6 7 7 8 10 9 6 6 13 24 40 52 52 45 46 53 54 47 41 35 30 24 16 10 7 5 2 1 0 0 0 0 0 0 0 0 0 0 0 0
0 0 0 0 0 0 1 2 3 5 8 12 15 15 13 11 15 27 39 49 58 57 49 47 50 48 41 34 28 23 18 11 7 5 4 3 1 1 0 0 0 0 0 0 0 0 0 0 0
0 0 0 0 0 0 1 1 2 4 9 15 19 20 17 18 27 39 46 49 56 59 56 51 46 41 35 30 25 20 14 8 6 5 4 3 3 2 1 0 0 0 0 0 0 0 0 0 0
0 0 0 0 0 0 0 1 2 6 11 16 20 20 18 24 36 46 51 53 56 60 60 54 43 35 31 27 24 20 14 10 7 6 5 4 3 3 1 0 0 0 0 0 0 0 0 0 0
0 0 0 0 0 0 0 1 3 8 15 20 21 19 21 31 43 51 56 57 56 56 56 53 46 40 34 28 24 20 15 11 8 5 4 3 3 3 2 1 0 0 0 0 0 0 1 1 0
0 0 0 0 0 0 0 0 3 8 15 21 25 27 33 44 50 53 54 52 47 44 45 46 48 49 42 32 24 18 14 11 8 6 4 3 3 3 2 1 1 1 0 0 1 2 3 2 1
0 0 0 0 0 0 0 1 4 8 12 18 30 42 51 53 51 48 45 39 35 33 32 35 42 48 43 31 22 14 11 9 9 7 5 3 3 3 2 1 2 1 1 1 1 3 4 3 2
0 0 0 0 0 0 1 3 7 9 8 14 32 51 57 52 44 37 32 27 27 27 25 26 32 36 32 23 16 10 8 8 8 7 5 2 1 2 1 0 1 1 0 0 1 2 3 2 1
0 0 0 0 0 2 5 8 11 12 11 16 31 47 51 44 35 27 22 20 21 23 21 20 22 22 18 14 9 7 5 5 5 4 2 0 0 0 0 0 0 0 0 1 1 0 1 1 0
0 0 1 1 1 4 9 12 13 15 19 25 34 41 41 35 27 21 17 15 16 17 15 15 14 12 9 8 6 4 3 3 3 2 0 0 0 0 0 0 0 0 0 1 2 1 0 0 0
0 0 1 2 1 4 8 10 11 15 24 31 35 35 32 27 21 16 14 11 11 11 11 10 8 6 5 5 3 1 1 2 2 1 1 0 0 0 0 0 0 0 0 1 1 1 0 0 0
0 0 1 1 0 2 4 5 7 14 24 30 30 28 25 21 16 12 11 10 8 7 7 6 5 3 3 2 1 0 0 1 2 2 1 0 0 0 0 0 0 0 0 0 0 0 0 0 0
0 0 0 0 0 0 1 2 5 12 21 25 24 21 19 16 11 9 9 9 7 4 4 5 4 3 2 1 0 0 0 0 1 1 1 0 0 0 0 0 0 0 0 0 0 0 0 0 0
0 0 0 0 0 0 0 1 3 9 16 19 18 16 14 10 6 5 7 8 6 3 2 5 6 5 2 1 0 0 0 0 0 0 0 0 0 0 0 0 0 0 0 0 0 0 0 0 0
0 0 0 0 0 0 0 1 3 8 13 15 13 10 7 5 3 3 5 7 6 4 2 4 7 5 2 1 0 0 0 0 0 0 0 0 0 0 0 0 0 0 0 0 0 0 0 0 0
0 0 0 0 0 0 0 1 3 7 11 12 10 5 2 2 3 4 4 6 6 4 3 4 5 3 1 0 0 0 0 0 0 0 0 0 0 0 0 0 0 0 0 0 0 0 0 0 0
0 0 0 0 0 0 0 0 2 4 7 9 7 3 1 1 3 4 4 4 4 2 2 3 3 1 0 0 1 0 0 0 0 0 0 0 0 0 0 0 0 0 0 0 0 0 0 0 0
0 0 0 0 0 0 0 0 1 2 4 5 5 3 1 1 1 2 3 3 2 1 1 2 2 1 0 0 0 0 0 0 0 0 0 0 0 0 0 0 0 0 0 0 0 0 0 0 0
0 0 0 0 0 0 0 0 0 1 2 3 3 3 3 2 1 2 4 4 2 1 0 1 1 0 0 0 0 0 0 0 0 0 0 0 0 0 0 0 0 0 0 0 0 0 0 0 0
0 0 0 0 0 0 0 0 0 0 1 1 2 3 3 3 2 2 5 5 3 0 0 0 0 0 0 0 0 0 0 0 0 0 0 0 0 0 0 0 0 0 0 0 0 0 0 0 0
0 0 0 0 0 0 0 0 0 0 0 0 1 1 2 3 2 1 3 4 3 1 0 0 0 0 0 0 0 0 0 0 0 0 0 0 0 0 0 0 0 0 0 0 0 0 0 0 0
0 0 0 0 0 0 0 0 0 0 0 0 0 0 2 3 2 1 1 2 2 1 0 0 0 0 0 0 0 0 0 0 0 0 0 0 0 0 0 0 0 0 0 0 0 0 0 0 0
0 0 0 0 0 0 0 0 0 0 0 0 0 0 1 2 1 0 0 1 1 0 0 0 0 0 0 0 0 0 0 0 0 0 0 0 0 0 0 0 0 0 0 0 0 0 0 0 0
0 0 0 0 0 0 0 0 0 0 0 0 0 0 0 0 0 0 0 0 0 0 0 0 0 0 0 0 0 0 0 0 0 0 0 0 0 0 0 0 0 0 0 0 0 0 0 0 0
0 0 0 0 0 0 0 0 0 0 0 0 0 0 0 0 0 0 0 0 0 0 0 0 0 0 0 0 0 0 0 0 0 0 0 0 0 0 0 0 0 0 0 0 0 0 0 0 0
0 0 0 0 0 0 0 0 0 0 0 0 0 0 0 0 0 0 0 0 0 0 0 0 0 0 0 0 0 0 0 0 0 0 0 0 0 0 0 0 0 0 0 0 0 0 0 0 0
0 0 0 0 0 0 0 0 0 0 0 0 0 0 0 0 0 0 0 0 0 0 0 0 0 0 0 0 0 0 0 0 0 0 0 0 0 0 0 0 0 0 0 0 0 0 0 0 0

GEFSSGP_con_prob3kmehi_114.txt.gz
EHI
0 0 0 0 0 0 0 0 0 0 0 0 0 0 0 1 3 7 11 12 11 12 11 11 12 16 20 22 24 25 24 21 17 12 8 3 1 0 0 0 0 0 0 0 0 0 0 0 0
0 0 0 0 0 0 0 0 0 0 0 0 0 0 0 1 5 10 14 14 12 11 11 10 12 15 19 23 26 26 24 20 15 10 6 2 1 0 0 0 0 0 0 0 0 0 0 0 0
0 0 0 0 0 0 0 0 0 0 0 0 0 0 1 2 5 11 17 16 12 10 11 12 14 14 16 21 26 24 20 16 11 7 4 1 0 0 0 0 0 0 0 0 0 0 0 0 0
0 0 0 0 0 0 0 0 0 0 0 0 1 1 2 3 5 12 20 18 11 9 11 14 15 13 12 16 19 18 15 12 9 6 3 1 0 0 0 0 0 0 0 0 0 0 0 0 0
0 0 0 0 0 0 0 0 0 0 0 0 1 4 8 10 12 18 23 18 9 7 10 14 15 11 9 11 12 12 12 11 8 5 3 1 0 0 0 0 0 1 1 1 0 0 0 0 0
0 0 0 0 0 0 0 0 0 0 0 0 1 9 20 25 26 29 27 17 7 6 10 13 12 8 7 8 9 9 9 9 6 3 1 0 0 0 0 0 0 1 2 1 0 0 0 0 0
0 0 0 0 0 0 0 0 0 0 0 0 1 12 31 43 44 40 31 18 9 8 10 11 8 5 5 7 8 8 8 7 5 2 0 0 0 1 1 0 0 1 1 1 0 0 0 0 0
0 0 0 0 0 0 0 0 0 1 1 2 5 16 37 56 58 49 40 28 16 12 11 9 6 4 3 4 7 7 7 6 3 1 0 0 0 1 1 1 0 0 0 0 0 0 0 0 0
0 0 0 0 0 0 0 0 0 2 4 7 14 27 48 65 65 58 51 41 28 18 12 9 7 6 4 4 5 5 4 2 2 1 0 0 0 1 1 1 1 0 0 0 0 0 0 0 0
0 0 0 0 0 0 0 0 0 1 5 11 23 40 58 68 68 63 56 48 37 26 16 10 8 6 6 7 7 6 4 2 1 1 1 0 0 0 1 3 2 0 0 0 0 0 0 0 0
0 0 0 0 0 0 0 0 0 2 6 15 28 44 58 65 66 61 53 45 38 31 21 13 11 11 12 12 10 8 6 3 2 2 1 1 2 3 4 4 3 1 0 0 0 0 0 1 1
0 0 0 0 0 0 0 0 1 4 11 20 30 42 53 60 59 53 46 40 37 31 23 17 18 20 19 16 10 6 4 3 3 4 3 3 5 6 6 6 5 2 0 0 0 0 1 1 2
0 0 0 0 0 0 0 1 3 8 15 22 28 36 44 49 50 45 39 36 33 27 22 20 22 24 23 18 10 3 1 3 5 6 5 4 6 6 5 6 6 3 1 1 1 1 1 1 1
0 0 0 0 0 0 0 2 4 11 17 21 24 28 32 37 39 36 32 31 27 21 19 19 20 20 21 17 9 3 3 5 6 6 5 5 5 4 3 5 4 2 1 1 2 1 1 1 1
0 0 0 0 0 0 0 2 7 13 17 19 21 22 22 25 26 24 24 24 22 19 17 15 14 15 15 13 8 5 4 5 5 5 6 5 5 4 3 3 3 1 0 1 2 1 0 0 0
0 0 0 0 0 0 0 3 9 13 16 19 22 21 18 17 17 17 17 18 19 18 15 12 9 10 12 13 11 7 5 5 5 5 5 4 3 2 2 2 2 1 0 1 2 2 1 0 0
0 0 0 0 0 0 0 3 7 10 14 19 22 20 16 14 15 16 15 14 15 16 14 11 9 9 11 14 13 9 6 4 3 4 5 3 1 0 1 1 2 2 1 0 1 1 1 0 0
0 0 0 0 0 0 0 2 4 7 11 17 20 19 15 11 12 13 12 11 11 13 13 12 12 11 11 13 12 9 6 3 2 3 4 2 0 0 0 1 2 3 2 1 0 0 0 0 0
0 0 0 0 0 0 0 1 3 6 10 15 19 18 13 8 7 7 7 7 8 10 11 13 14 13 11 11 10 9 6 4 3 3 3 1 0 0 0 1 2 3 3 2 1 1 1 0 0
0 0 0 0 0 0 0 1 3 6 10 15 17 14 10 6 4 3 4 5 6 7 9 11 12 10 10 10 10 10 8 5 3 3 1 0 0 0 0 0 1 3 3 3 3 2 2 1 0
0 0 0 0 0 0 0 1 3 6 10 13 13 10 7 4 2 1 3 5 6 7 7 7 7 6 7 9 9 8 7 5 3 3 1 0 0 0 0 0 1 2 2 2 2 2 2 1 0
0 0 0 0 0 0 0 1 3 6 9 11 11 9 6 3 1 1 3 6 8 7 7 7 6 5 5 6 5 5 4 4 4 3 2 1 0 0 0 0 0 1 1 1 1 1 1 0 0
0 0 0 0 0 0 0 0 1 3 7 11 13 10 7 4 2 1 3 6 8 8 8 8 8 6 4 4 3 3 4 5 5 4 3 1 0 0 0 0 0 0 0 0 0 0 0 0 0
0 0 0 0 0 0 0 0 0 1 3 8 13 13 9 5 3 2 2 5 7 8 7 6 7 6 4 3 2 3 3 5 6 5 3 1 0 0 0 0 0 0 0 0 0 0 0 0 0
0 0 0 0 0 0 0 0 0 0 1 4 10 12 10 7 4 3 3 4 6 6 5 4 5 5 3 1 1 1 3 4 5 4 2 1 0 0 0 0 0 0 0 0 0 0 0 0 0
0 0 0 0 0 0 0 0 0 0 0 2 6 9 9 7 5 3 2 3 5 5 5 4 4 3 2 0 1 2 3 4 3 3 1 0 0 0 0 0 0 0 0 0 0 0 0 0 0
0 0 0 0 0 0 0 0 0 0 0 2 5 7 7 6 4 2 1 1 3 5 5 5 5 3 2 1 2 4 4 4 4 3 1 0 0 0 0 0 0 0 0 0 0 0 0 0 0
0 0 0 0 0 0 0 0 0 0 0 2 5 7 6 4 3 1 0 0 2 5 6 6 6 5 3 2 3 4 5 6 6 4 1 0 0 0 0 0 0 0 0 0 0 0 0 0 0
0 0 0 0 0 0 0 0 0 0 1 2 5 8 6 3 2 1 1 1 3 6 7 6 5 6 6 5 5 5 5 6 6 4 1 0 0 0 0 0 0 0 0 0 0 0 0 0 0
0 0 0 0 0 0 0 0 0 0 1 1 4 7 6 3 2 1 2 3 5 7 7 6 5 7 9 9 7 6 5 6 6 4 1 1 1 1 0 0 0 0 0 0 0 0 0 0 0

GEFSSGP_con_prob3kmehi_120.txt.gz
EHI
1 7 17 16 9 6 4 1 0 0 0 0 0 5 16 21 18 16 26 50 69 61 47 40 30 15 4 1 0 0 0 1 0 0 0 0 0 0 0 0 0 0 0 0 0 0 0 0 0
1 5 10 10 8 5 2 0 0 0 0 0 2 8 18 20 19 22 38 61 70 58 43 39 32 18 6 2 1 1 2 2 1 0 0 0 0 0 0 0 0 0 0 0 0 0 0 0 0
1 3 5 5 4 3 1 0 0 0 0 0 4 14 23 22 23 35 54 68 67 52 44 43 37 23 10 4 3 3 4 5 3 1 0 0 0 0 0 0 0 0 0 0 0 0 0 0 0
2 3 4 3 1 1 0 0 0 0 0 1 10 24 33 32 34 46 57 62 58 50 47 47 42 29 15 8 6 6 6 4 2 1 0 0 0 0 0 0 0 0 0 0 0 0 0 0 0
2 3 3 2 0 0 0 0 0 0 0 2 14 34 43 44 47 49 48 50 52 51 48 45 43 33 18 10 9 8 5 2 1 0 0 0 0 0 0 0 0 0 0 0 0 0 0 0 0
1 2 1 0 0 0 0 0 0 0 0 3 16 37 49 50 48 42 37 41 51 55 48 42 36 27 17 11 7 6 4 1 0 0 0 0 0 0 0 0 0 0 0 0 0 0 0 0 0
0 0 0 0 0 0 0 0 0 0 1 4 15 36 53 54 45 35 30 38 54 60 49 35 23 16 11 7 4 4 3 1 1 0 0 0 0 0 0 0 0 0 0 0 0 0 0 0 0
0 0 0 0 0 0 0 0 0 1 3 7 20 42 60 59 47 38 35 45 62 64 48 28 14 8 5 3 3 3 3 3 2 1 0 0 0 1 1 1 1 0 0 0 0 0 0 0 0
0 0 0 0 0 0 0 0 0 2 8 17 33 53 66 65 58 52 52 62 72 68 50 30 18 10 4 3 4 4 3 3 3 1 1 1 1 1 2 3 3 1 0 0 0 0 0 0 0
0 0 0 0 0 0 0 0 0 3 13 29 47 60 68 71 70 67 69 76 80 73 56 40 28 18 12 10 9 5 3 3 3 3 2 3 2 2 3 5 4 2 0 0 0 0 0 0 0
0 0 0 0 0 0 0 0 1 6 17 34 51 61 66 71 76 77 77 79 81 74 60 48 39 32 27 22 14 7 4 3 4 5 5 3 4 6 7 6 4 2 0 0 0 0 0 0 1
0 0 0 0 0 0 0 1 4 10 20 31 44 55 60 64 70 73 72 72 73 69 61 55 53 50 44 32 17 9 5 4 5 7 7 6 8 12 12 10 6 2 1 1 1 1 0 0 1
0 0 0 0 0 0 1 3 8 16 22 29 37 47 51 53 55 58 60 62 63 63 62 63 64 61 53 40 27 17 12 10 11 10 9 11 15 17 16 13 7 4 2 2 2 1 0 0 1
0 0 0 0 0 0 1 4 12 21 26 30 36 41 43 43 43 45 49 53 56 60 66 68 67 63 55 45 37 29 22 20 20 18 15 16 19 18 15 11 8 6 3 2 2 1 0 0 0
0 0 0 0 0 0 1 6 15 24 26 28 32 35 37 39 40 41 45 49 52 58 64 63 59 57 53 45 38 33 29 25 26 26 22 18 17 16 11 7 6 4 2 1 1 0 0 0 0
0 0 0 0 0 0 1 7 16 21 22 22 24 29 34 37 39 40 43 46 49 54 58 55 50 48 47 43 37 34 32 29 28 26 22 16 12 10 7 3 2 1 1 1 0 0 0 0 0
0 0 0 0 0 0 1 7 14 17 17 17 21 27 31 33 36 38 41 44 48 52 54 52 48 42 40 40 38 36 35 30 26 23 18 12 7 5 3 1 0 0 0 1 1 1 1 0 0
0 0 0 0 0 0 1 5 9 11 12 15 22 29 33 32 34 38 40 43 46 49 50 51 47 41 36 36 36 35 30 26 22 20 17 10 5 3 1 0 0 0 1 2 3 3 2 1 1
0 0 0 0 0 0 1 4 6 7 8 13 23 33 37 35 36 39 42 44 43 43 45 47 44 39 35 34 31 27 24 22 19 17 13 8 4 2 1 0 0 0 2 4 5 5 3 2 2
0 0 0 0 0 0 1 4 6 7 9 14 23 33 37 37 39 41 41 38 35 36 38 38 36 34 32 30 26 24 24 22 20 18 12 7 5 3 1 1 1 1 3 5 6 5 3 2 3
0 0 0 0 0 0 0 4 10 11 11 14 22 30 34 35 38 38 33 26 24 27 31 30 29 30 28 25 22 24 24 21 21 21 16 10 6 3 1 1 1 1 3 4 4 5 3 2 2
0 0 0 0 0 0 0 4 12 15 14 17 23 28 30 31 33 31 25 19 18 21 25 28 29 30 27 21 18 20 19 17 18 20 19 13 6 2 0 1 1 1 1 2 3 3 2 1 1
0 0 0 0 0 0 0 2 8 11 14 19 25 26 27 28 27 24 21 19 17 19 23 28 32 33 27 19 17 17 15 16 17 19 19 12 5 2 1 1 2 1 0 1 1 1 1 0 0
0 0 0 0 0 0 0 0 3 6 12 21 25 24 25 25 24 23 24 22 20 22 25 28 32 33 27 19 16 16 17 20 21 18 12 7 4 2 2 3 3 1 0 0 0 0 0 0 0
0 0 0 0 0 0 0 0 1 4 10 19 24 23 23 23 23 26 29 28 26 26 27 28 30 31 26 19 15 16 18 20 18 11 6 4 3 3 5 5 3 1 0 0 0 0 0 0 0
0 0 0 0 0 0 0 0 1 2 7 15 19 21 22 23 24 29 31 29 27 27 27 27 27 28 25 20 18 19 17 13 8 5 4 4 4 5 7 7 4 1 0 0 0 0 0 0 0
0 0 0 0 0 0 0 0 1 2 4 8 12 17 21 23 26 30 32 29 26 25 26 25 26 28 25 21 21 20 15 9 5 4 5 6 7 7 8 7 4 1 1 0 0 0 0 0 0
0 0 0 0 0 0 0 0 0 2 3 4 7 14 21 25 28 31 34 33 29 27 26 26 27 28 24 21 19 18 15 12 10 8 7 9 9 9 7 5 3 3 2 1 0 0 0 0 0
0 0 0 0 0 0 0 0 0 2 3 3 5 13 22 26 29 35 38 37 34 32 31 30 30 29 26 23 21 19 18 18 16 13 11 11 10 9 6 3 3 4 3 1 0 0 0 0 0
0 0 0 0 0 0 0 0 0 1 3 2 4 12 23 26 30 38 41 37 37 37 35 34 33 31 31 28 25 22 22 23 20 16 13 12 10 8 5 4 3 4 3 1 0 0 0 0 0